This is the latest recevied weather packets stored in our database for station/object IK5YZV-10. If no packets are shown the sender has not sent any weather packets the latest 10 day(s).
| Time | Temp. | Humidity | Pressure | Rain* | Wind** | Luminosity | Snow |
|---|---|---|---|---|---|---|---|
| 1777574046 | 20.56° C | 51% | 1020.4 hPa | - | - | - | - |
| 1777573145 | 20.56° C | 52% | 1020.2 hPa | - | - | - | - |
| 1777572244 | 20.56° C | 51% | 1020 hPa | - | - | - | - |
| 1777571344 | 20.56° C | 51% | 1019.8 hPa | - | - | - | - |
| 1777570442 | 20.56° C | 51% | 1019.7 hPa | - | - | - | - |
| 1777569541 | 20.56° C | 49% | 1019.5 hPa | - | - | - | - |
| 1777568640 | 21.11° C | 50% | 1019.5 hPa | - | - | - | - |
| 1777567740 | 21.11° C | 51% | 1019.4 hPa | - | - | - | - |
| 1777566839 | 20.56° C | 49% | 1019.4 hPa | - | - | - | - |
| 1777565937 | 20.56° C | 48% | 1019.4 hPa | - | - | - | - |
| 1777565036 | 20.56° C | 50% | 1019.4 hPa | - | - | - | - |
| 1777564135 | 20.56° C | 52% | 1019.4 hPa | - | - | - | - |
| 1777563234 | 20.56° C | 53% | 1019.3 hPa | - | - | - | - |
| 1777562333 | 20.56° C | 53% | 1019.3 hPa | - | - | - | - |
| 1777561433 | 20.56° C | 53% | 1019.2 hPa | - | - | - | - |
| 1777560532 | 20.56° C | 51% | 1019.2 hPa | - | - | - | - |
| 1777559631 | 20.56° C | 52% | 1019.3 hPa | - | - | - | - |
| 1777558730 | 20.56° C | 50% | 1019.3 hPa | - | - | - | - |
| 1777557829 | 20.56° C | 53% | 1019.4 hPa | - | - | - | - |
| 1777556929 | 20.56° C | 52% | 1019.3 hPa | - | - | - | - |
| 1777556028 | 20.56° C | 54% | 1019.4 hPa | - | - | - | - |
| 1777555127 | 20.56° C | 55% | 1019.5 hPa | - | - | - | - |
| 1777554226 | 20.56° C | 54% | 1019.5 hPa | - | - | - | - |
| 1777553325 | 20.56° C | 56% | 1019.6 hPa | - | - | - | - |
| 1777552424 | 20.56° C | 53% | 1019.8 hPa | - | - | - | - |
* Rain since midnight (hover to see other rain measurements)
** Current wind speed in m/s (hover to see current wind gust speed)